Tracking 19644 objects as of 24-Apr-2019
HD Live streaming from Space Station
objects crossing your sky now

CZ-4 DEB

Track CZ-4 DEB now!
10-day predictions


NORAD ID: 26338
Int'l Code: 1999-057HX
Perigee: 709.0 km
Apogee: 842.3 km
Inclination: 98.7 °
Period: 100.2 minutes
Semi major axis: 7146 km
RCS: 0.3931 m2 (medium)
Launch date: October 14, 1999
Source: People's Republic of China (PRC)
Launch site: Taiyaun Space Center, China (TSC)

Note: This is SATELLITE DEBRIS
aabbcc
Your satellite tracking list
Your tracking list is empty




NASA's NSSDC Master Catalog

Two Line Element Set (TLE):
1 26338U 99057HX  19113.90982167  .00000071  00000-0  37950-4 0  9995
2 26338  98.6776  76.9013 0093262 341.4840  80.5365 14.36988479  1185
Source of the keplerian elements: AFSPC